Time,TemperatureF,DewpointF,PressureIn,WindDirection,WindDirectionDegrees,WindSpeedMPH,WindSpeedGustMPH,Humidity,HourlyPrecipIn,Conditions,Clouds,dailyrainin,SoftwareType,DateUTC
2013-02-16 00:02:00,11.0,8.0,-100.00,WNW,285,6.0,6.0,86,0.00,,,-99.99,,2013-02-16 06:02:00,
2013-02-16 00:11:00,11.0,8.0,-100.00,WNW,290,6.0,6.0,86,0.00,,,-99.99,,2013-02-16 06:11:00,
2013-02-16 00:21:00,10.0,7.0,-100.00,West,280,6.0,6.0,87,0.00,,,-99.99,,2013-02-16 06:21:00,
2013-02-16 00:32:00,10.0,7.0,-100.00,West,275,6.0,6.0,87,0.00,,,-99.99,,2013-02-16 06:32:00,
2013-02-16 00:42:00,10.0,7.0,-100.00,West,275,7.0,7.0,87,0.00,,,-99.99,,2013-02-16 06:42:00,
2013-02-16 00:51:00,10.0,7.0,-100.00,West,280,6.0,7.0,87,0.00,,,-99.99,,2013-02-16 06:51:00,
2013-02-16 01:02:00,10.0,7.0,-100.00,West,280,6.0,7.0,87,0.00,,,-99.99,,2013-02-16 07:02:00,
2013-02-16 01:11:00,10.0,7.0,-100.00,West,280,7.0,7.0,87,0.00,,,-99.99,,2013-02-16 07:11:00,
2013-02-16 01:21:00,10.0,7.0,-100.00,WNW,285,6.0,7.0,87,0.00,,,-99.99,,2013-02-16 07:21:00,
2013-02-16 01:31:00,10.0,7.0,-100.00,West,280,6.0,6.0,87,0.00,,,-99.99,,2013-02-16 07:31:00,
2013-02-16 01:42:00,10.0,7.0,-100.00,West,275,7.0,7.0,87,0.00,,,-99.99,,2013-02-16 07:42:00,
2013-02-16 01:52:00,10.0,7.0,-100.00,West,265,6.0,7.0,87,0.00,,,-99.99,,2013-02-16 07:52:00,
2013-02-16 02:01:00,10.0,7.0,-100.00,West,265,6.0,7.0,87,0.00,,,-99.99,,2013-02-16 08:01:00,
2013-02-16 02:11:00,9.0,7.0,-100.00,West,270,7.0,7.0,87,0.00,,,-99.99,,2013-02-16 08:11:00,
2013-02-16 02:21:00,9.0,7.0,-100.00,West,270,7.0,8.0,87,0.00,,,-99.99,,2013-02-16 08:21:00,
2013-02-16 02:31:00,10.0,7.0,-100.00,West,280,7.0,9.0,87,0.00,,,-99.99,,2013-02-16 08:31:00,
2013-02-16 02:41:00,10.0,8.0,-100.00,West,270,6.0,8.0,87,0.00,,,-99.99,,2013-02-16 08:41:00,
2013-02-16 02:52:00,9.0,7.0,-100.00,West,265,6.0,6.0,87,0.00,,,-99.99,,2013-02-16 08:52:00,
2013-02-16 03:01:00,9.0,7.0,-100.00,West,265,6.0,6.0,87,0.00,,,-99.99,,2013-02-16 09:01:00,
2013-02-16 03:11:00,10.0,7.0,-100.00,West,265,6.0,7.0,87,0.00,,,-99.99,,2013-02-16 09:11:00,
2013-02-16 03:21:00,10.0,7.0,-100.00,West,270,6.0,7.0,87,0.00,,,-99.99,,2013-02-16 09:21:00,
2013-02-16 03:31:00,10.0,7.0,-100.00,West,265,6.0,7.0,87,0.00,,,-99.99,,2013-02-16 09:31:00,
2013-02-16 03:42:00,10.0,7.0,-100.00,West,265,6.0,7.0,87,0.00,,,-99.99,,2013-02-16 09:42:00,
2013-02-16 03:51:00,10.0,8.0,-100.00,West,265,6.0,7.0,87,0.00,,,-99.99,,2013-02-16 09:51:00,
2013-02-16 04:01:00,10.0,8.0,-100.00,West,265,6.0,7.0,87,0.00,,,-99.99,,2013-02-16 10:01:00,
2013-02-16 04:11:00,10.0,7.0,-100.00,West,265,5.0,7.0,87,0.00,,,-99.99,,2013-02-16 10:11:00,
2013-02-16 04:21:00,10.0,8.0,-100.00,West,265,6.0,7.0,88,0.00,,,-99.99,,2013-02-16 10:21:00,
2013-02-16 04:31:00,10.0,8.0,-100.00,West,265,4.0,6.0,88,0.00,,,-99.99,,2013-02-16 10:31:00,
2013-02-16 04:41:00,10.0,8.0,-100.00,West,265,5.0,6.0,88,0.00,,,-99.99,,2013-02-16 10:41:00,
2013-02-16 04:51:00,11.0,9.0,-100.00,West,265,9.0,9.0,88,0.00,,,-99.99,,2013-02-16 10:51:00,
2013-02-16 05:02:00,11.0,9.0,-100.00,West,265,9.0,9.0,88,0.00,,,-99.99,,2013-02-16 11:02:00,
2013-02-16 05:11:00,11.0,9.0,-100.00,West,265,7.0,9.0,89,0.00,,,-99.99,,2013-02-16 11:11:00,
2013-02-16 05:22:00,11.0,9.0,-100.00,West,265,7.0,9.0,89,0.00,,,-99.99,,2013-02-16 11:22:00,
2013-02-16 05:32:00,12.0,9.0,-100.00,West,260,7.0,10.0,89,0.00,,,-99.99,,2013-02-16 11:32:00,
2013-02-16 05:42:00,12.0,9.0,-100.00,WSW,255,7.0,9.0,89,0.00,,,-99.99,,2013-02-16 11:42:00,
2013-02-16 05:52:00,11.0,9.0,-100.00,West,260,6.0,9.0,89,0.00,,,-99.99,,2013-02-16 11:52:00,
2013-02-16 06:01:00,12.0,9.0,-100.00,West,265,7.0,9.0,89,0.00,,,-99.99,,2013-02-16 12:01:00,
2013-02-16 06:12:00,12.0,9.0,-100.00,West,260,6.0,7.0,89,0.00,,,-99.99,,2013-02-16 12:12:00,
2013-02-16 06:22:00,11.0,9.0,-100.00,West,260,7.0,8.0,89,0.00,,,-99.99,,2013-02-16 12:22:00,
2013-02-16 06:32:00,11.0,9.0,-100.00,WSW,255,9.0,9.0,89,0.00,,,-99.99,,2013-02-16 12:32:00,
2013-02-16 06:42:00,11.0,9.0,-100.00,WSW,250,7.0,10.0,89,0.00,,,-99.99,,2013-02-16 12:42:00,
2013-02-16 06:52:00,11.0,9.0,-100.00,WSW,255,6.0,7.0,89,0.00,,,-99.99,,2013-02-16 12:52:00,
2013-02-16 07:02:00,11.0,9.0,-100.00,WSW,255,6.0,7.0,89,0.00,,,-99.99,,2013-02-16 13:02:00,
2013-02-16 07:11:00,10.0,8.0,-100.00,WSW,245,4.0,6.0,89,0.00,,,-99.99,,2013-02-16 13:11:00,
2013-02-16 07:21:00,9.0,7.0,-100.00,SW,235,4.0,6.0,89,0.00,,,-99.99,,2013-02-16 13:21:00,
2013-02-16 07:31:00,9.0,7.0,-100.00,SW,235,4.0,6.0,90,0.00,,,-99.99,,2013-02-16 13:31:00,
2013-02-16 07:41:00,9.0,7.0,-100.00,SW,220,4.0,5.0,90,0.00,,,-99.99,,2013-02-16 13:41:00,
2013-02-16 07:51:00,11.0,8.0,-100.00,South,180,4.0,6.0,90,0.00,,,-99.99,,2013-02-16 13:51:00,
2013-02-16 08:01:00,11.0,8.0,-100.00,South,180,4.0,6.0,90,0.00,,,-99.99,,2013-02-16 14:01:00,
2013-02-16 08:11:00,11.0,9.0,-100.00,SE,145,3.0,4.0,90,0.00,,,-99.99,,2013-02-16 14:11:00,
2013-02-16 08:21:00,13.0,10.0,-100.00,South,175,3.0,4.0,90,0.00,,,-99.99,,2013-02-16 14:21:00,
2013-02-16 08:32:00,14.0,11.0,-100.00,SSE,165,3.0,4.0,90,0.00,,,-99.99,,2013-02-16 14:32:00,
2013-02-16 08:41:00,15.0,13.0,-100.00,South,175,4.0,5.0,90,0.00,,,-99.99,,2013-02-16 14:41:00,
2013-02-16 08:52:00,18.0,15.0,-100.00,SSW,195,4.0,7.0,88,0.00,,,-99.99,,2013-02-16 14:52:00,
2013-02-16 09:01:00,18.0,15.0,-100.00,SSW,195,4.0,7.0,88,0.00,,,-99.99,,2013-02-16 15:01:00,
2013-02-16 09:11:00,18.0,15.0,-100.00,South,175,4.0,7.0,86,0.00,,,-99.99,,2013-02-16 15:11:00,
2013-02-16 09:21:00,20.0,16.0,-100.00,SSW,195,6.0,6.0,86,0.00,,,-99.99,,2013-02-16 15:21:00,
2013-02-16 09:32:00,20.0,16.0,-100.00,South,185,7.0,9.0,85,0.00,,,-99.99,,2013-02-16 15:32:00,
2013-02-16 09:41:00,21.0,17.0,-100.00,SSW,195,6.0,9.0,84,0.00,,,-99.99,,2013-02-16 15:41:00,
2013-02-16 09:51:00,22.0,18.0,-100.00,SW,215,7.0,11.0,83,0.00,,,-99.99,,2013-02-16 15:51:00,
2013-02-16 10:01:00,22.0,18.0,-100.00,SW,215,7.0,11.0,83,0.00,,,-99.99,,2013-02-16 16:01:00,
2013-02-16 10:11:00,23.0,18.0,-100.00,SSW,210,7.0,11.0,82,0.00,,,-99.99,,2013-02-16 16:11:00,
2013-02-16 10:21:00,24.0,19.0,-100.00,SSW,205,6.0,9.0,81,0.00,,,-99.99,,2013-02-16 16:21:00,
2013-02-16 10:32:00,25.0,19.0,-100.00,SW,215,7.0,10.0,79,0.00,,,-99.99,,2013-02-16 16:32:00,
2013-02-16 10:41:00,25.0,19.0,-100.00,SSW,200,7.0,11.0,78,0.00,,,-99.99,,2013-02-16 16:41:00,
2013-02-16 10:51:00,27.0,20.0,-100.00,SW,235,6.0,11.0,75,0.00,,,-99.99,,2013-02-16 16:51:00,
2013-02-16 11:01:00,27.0,20.0,-100.00,SW,235,6.0,11.0,75,0.00,,,-99.99,,2013-02-16 17:01:00,
2013-02-16 11:11:00,28.0,20.0,-100.00,SW,215,7.0,12.0,72,0.00,,,-99.99,,2013-02-16 17:11:00,
2013-02-16 11:21:00,29.0,20.0,-100.00,SSW,195,6.0,12.0,70,0.00,,,-99.99,,2013-02-16 17:21:00,
2013-02-16 11:32:00,29.0,20.0,-100.00,SW,220,10.0,13.0,68,0.00,,,-99.99,,2013-02-16 17:32:00,
2013-02-16 11:41:00,30.0,20.0,-100.00,South,175,8.0,12.0,65,0.00,,,-99.99,,2013-02-16 17:41:00,
2013-02-16 11:52:00,33.0,21.0,-100.00,SSW,210,7.0,12.0,62,0.00,,,-99.99,,2013-02-16 17:52:00,
2013-02-16 12:02:00,33.0,21.0,-100.00,SSW,210,7.0,12.0,62,0.00,,,-99.99,,2013-02-16 18:02:00,
2013-02-16 12:11:00,33.0,20.0,-100.00,South,185,6.0,11.0,58,0.00,,,-99.99,,2013-02-16 18:11:00,
2013-02-16 12:21:00,33.0,19.0,-100.00,SW,215,7.0,12.0,57,0.00,,,-99.99,,2013-02-16 18:21:00,
2013-02-16 12:33:00,33.0,20.0,-100.00,South,190,7.0,10.0,57,0.00,,,-99.99,,2013-02-16 18:33:00,
2013-02-16 12:42:00,34.0,20.0,-100.00,SW,220,6.0,13.0,55,0.00,,,-99.99,,2013-02-16 18:42:00,
2013-02-16 12:51:00,35.0,20.0,-100.00,SW,220,7.0,13.0,54,0.00,,,-99.99,,2013-02-16 18:51:00,
2013-02-16 13:02:00,35.0,20.0,-100.00,SW,220,7.0,13.0,54,0.00,,,-99.99,,2013-02-16 19:02:00,
2013-02-16 13:11:00,34.0,19.0,-100.00,South,185,7.0,15.0,53,0.00,,,-99.99,,2013-02-16 19:11:00,
2013-02-16 13:21:00,34.0,19.0,-100.00,SW,220,7.0,12.0,53,0.00,,,-99.99,,2013-02-16 19:21:00,
2013-02-16 13:31:00,34.0,19.0,-100.00,WSW,245,9.0,15.0,52,0.00,,,-99.99,,2013-02-16 19:31:00,
2013-02-16 13:42:00,35.0,20.0,-100.00,SSW,210,10.0,14.0,53,0.00,,,-99.99,,2013-02-16 19:42:00,
2013-02-16 13:52:00,35.0,20.0,-100.00,SW,225,9.0,15.0,52,0.00,,,-99.99,,2013-02-16 19:52:00,
2013-02-16 14:01:00,35.0,20.0,-100.00,SW,225,9.0,15.0,52,0.00,,,-99.99,,2013-02-16 20:01:00,
2013-02-16 14:11:00,35.0,20.0,-100.00,WSW,240,9.0,12.0,52,0.00,,,-99.99,,2013-02-16 20:11:00,
2013-02-16 14:21:00,35.0,20.0,-100.00,SW,220,10.0,11.0,52,0.00,,,-99.99,,2013-02-16 20:21:00,
2013-02-16 14:32:00,36.0,20.0,-100.00,SSW,200,7.0,13.0,52,0.00,,,-99.99,,2013-02-16 20:32:00,
2013-02-16 14:42:00,36.0,20.0,-100.00,SSW,205,7.0,14.0,52,0.00,,,-99.99,,2013-02-16 20:42:00,
2013-02-16 14:52:00,36.0,19.0,-100.00,WSW,245,7.0,10.0,50,0.00,,,-99.99,,2013-02-16 20:52:00,
2013-02-16 15:02:00,36.0,19.0,-100.00,WSW,245,7.0,10.0,50,0.00,,,-99.99,,2013-02-16 21:02:00,
2013-02-16 15:11:00,37.0,20.0,-100.00,SW,220,9.0,12.0,51,0.00,,,-99.99,,2013-02-16 21:11:00,
2013-02-16 15:21:00,37.0,20.0,-100.00,SW,215,7.0,13.0,51,0.00,,,-99.99,,2013-02-16 21:21:00,
2013-02-16 15:31:00,36.0,20.0,-100.00,SW,215,2.0,13.0,50,0.00,,,-99.99,,2013-02-16 21:31:00,
2013-02-16 15:41:00,36.0,19.0,-100.00,SW,225,6.0,10.0,49,0.00,,,-99.99,,2013-02-16 21:41:00,
2013-02-16 15:52:00,37.0,20.0,-100.00,SW,230,9.0,11.0,49,0.00,,,-99.99,,2013-02-16 21:52:00,
2013-02-16 16:01:00,37.0,20.0,-100.00,SW,230,9.0,11.0,49,0.00,,,-99.99,,2013-02-16 22:01:00,
2013-02-16 16:11:00,37.0,20.0,-100.00,WSW,240,4.0,8.0,49,0.00,,,-99.99,,2013-02-16 22:11:00,
2013-02-16 16:21:00,37.0,20.0,-100.00,WSW,240,4.0,8.0,49,0.00,,,-99.99,,2013-02-16 22:21:00,
2013-02-16 16:32:00,35.0,20.0,-100.00,SW,215,6.0,9.0,51,0.00,,,-99.99,,2013-02-16 22:32:00,
2013-02-16 16:42:00,36.0,20.0,-100.00,South,190,3.0,10.0,51,0.00,,,-99.99,,2013-02-16 22:42:00,
2013-02-16 16:51:00,35.0,20.0,-100.00,SW,230,7.0,10.0,53,0.00,,,-99.99,,2013-02-16 22:51:00,
2013-02-16 17:02:00,35.0,20.0,-100.00,SW,230,7.0,10.0,53,0.00,,,-99.99,,2013-02-16 23:02:00,
2013-02-16 17:11:00,36.0,21.0,-100.00,SW,215,9.0,10.0,53,0.00,,,-99.99,,2013-02-16 23:11:00,
2013-02-16 17:21:00,36.0,21.0,-100.00,SSW,200,7.0,11.0,53,0.00,,,-99.99,,2013-02-16 23:21:00,
2013-02-16 17:31:00,35.0,20.0,-100.00,SSW,210,6.0,9.0,55,0.00,,,-99.99,,2013-02-16 23:31:00,
2013-02-16 17:42:00,34.0,21.0,-100.00,SW,230,7.0,9.0,58,0.00,,,-99.99,,2013-02-16 23:42:00,
2013-02-16 17:52:00,32.0,21.0,-100.00,SW,235,9.0,11.0,63,0.00,,,-99.99,,2013-02-16 23:52:00,
2013-02-16 18:02:00,32.0,21.0,-100.00,SW,235,9.0,11.0,63,0.00,,,-99.99,,2013-02-17 00:02:00,
2013-02-16 18:12:00,31.0,21.0,-100.00,SW,235,7.0,9.0,67,0.00,,,-99.99,,2013-02-17 00:12:00,
2013-02-16 18:21:00,30.0,22.0,-100.00,SW,235,7.0,7.0,70,0.00,,,-99.99,,2013-02-17 00:21:00,
2013-02-16 18:32:00,30.0,22.0,-100.00,SW,235,7.0,7.0,73,0.00,,,-99.99,,2013-02-17 00:32:00,
2013-02-16 18:41:00,29.0,23.0,-100.00,SW,235,6.0,7.0,77,0.00,,,-99.99,,2013-02-17 00:41:00,
2013-02-16 18:51:00,30.0,24.0,-100.00,SW,235,5.0,6.0,79,0.00,,,-99.99,,2013-02-17 00:51:00,
2013-02-16 19:01:00,30.0,24.0,-100.00,SW,235,5.0,6.0,79,0.00,,,-99.99,,2013-02-17 01:01:00,
2013-02-16 19:11:00,30.0,24.0,-100.00,SW,230,6.0,6.0,79,0.00,,,-99.99,,2013-02-17 01:11:00,
2013-02-16 19:21:00,30.0,25.0,-100.00,SW,220,4.0,6.0,80,0.00,,,-99.99,,2013-02-17 01:21:00,
2013-02-16 19:31:00,30.0,25.0,-100.00,SW,225,4.0,6.0,81,0.00,,,-99.99,,2013-02-17 01:31:00,
2013-02-16 19:41:00,30.0,25.0,-100.00,SW,230,6.0,7.0,82,0.00,,,-99.99,,2013-02-17 01:41:00,
2013-02-16 19:52:00,30.0,25.0,-100.00,SW,235,6.0,7.0,82,0.00,,,-99.99,,2013-02-17 01:52:00,
2013-02-16 20:01:00,29.0,25.0,-100.00,SW,235,6.0,8.0,82,0.00,,,-99.99,,2013-02-17 02:01:00,
2013-02-16 20:11:00,28.0,24.0,-100.00,SW,230,4.0,6.0,82,0.00,,,-99.99,,2013-02-17 02:11:00,
2013-02-16 20:21:00,27.0,23.0,-100.00,SW,225,5.0,6.0,84,0.00,,,-99.99,,2013-02-17 02:21:00,
2013-02-16 20:31:00,27.0,23.0,-100.00,SW,215,4.0,5.0,85,0.00,,,-99.99,,2013-02-17 02:31:00,
2013-02-16 20:41:00,26.0,22.0,-100.00,SSW,210,4.0,5.0,86,0.00,,,-99.99,,2013-02-17 02:41:00,
2013-02-16 20:52:00,26.0,23.0,-100.00,South,180,4.0,4.0,87,0.00,,,-99.99,,2013-02-17 02:52:00,
2013-02-16 21:02:00,26.0,23.0,-100.00,South,180,4.0,4.0,87,0.00,,,-99.99,,2013-02-17 03:02:00,
2013-02-16 21:11:00,25.0,22.0,-100.00,SSE,155,5.0,6.0,88,0.00,,,-99.99,,2013-02-17 03:11:00,
2013-02-16 21:21:00,25.0,22.0,-100.00,SSE,155,6.0,6.0,89,0.00,,,-99.99,,2013-02-17 03:21:00,
2013-02-16 21:31:00,25.0,22.0,-100.00,SSE,160,5.0,6.0,90,0.00,,,-99.99,,2013-02-17 03:31:00,
2013-02-16 21:42:00,24.0,22.0,-100.00,SE,130,5.0,6.0,90,0.00,,,-99.99,,2013-02-17 03:42:00,
2013-02-16 21:51:00,26.0,24.0,-100.00,SE,145,7.0,9.0,92,0.00,,,-99.99,,2013-02-17 03:51:00,
2013-02-16 22:01:00,26.0,24.0,-100.00,SE,145,7.0,9.0,92,0.00,,,-99.99,,2013-02-17 04:01:00,
2013-02-16 22:11:00,24.0,22.0,-100.00,SE,130,6.0,7.0,92,0.00,,,-99.99,,2013-02-17 04:11:00,
2013-02-16 22:21:00,24.0,22.0,-100.00,SSE,150,6.0,7.0,92,0.00,,,-99.99,,2013-02-17 04:21:00,
2013-02-16 22:31:00,24.0,22.0,-100.00,SSE,165,7.0,7.0,92,0.00,,,-99.99,,2013-02-17 04:31:00,
2013-02-16 22:41:00,24.0,22.0,-100.00,South,175,7.0,8.0,92,0.00,,,-99.99,,2013-02-17 04:41:00,
2013-02-16 22:51:00,24.0,22.0,-100.00,South,185,7.0,9.0,92,0.00,,,-99.99,,2013-02-17 04:51:00,
2013-02-16 23:01:00,24.0,22.0,-100.00,South,185,7.0,9.0,91,0.00,,,-99.99,,2013-02-17 05:01:00,
2013-02-16 23:12:00,24.0,22.0,-100.00,South,175,6.0,8.0,91,0.00,,,-99.99,,2013-02-17 05:12:00,
2013-02-16 23:22:00,23.0,20.0,-100.00,SSE,150,4.0,7.0,90,0.00,,,-99.99,,2013-02-17 05:22:00,
2013-02-16 23:33:00,22.0,20.0,-100.00,SE,135,7.0,7.0,90,0.00,,,-99.99,,2013-02-17 05:33:00,
2013-02-16 23:42:00,23.0,21.0,-100.00,SSE,155,6.0,9.0,90,0.00,,,-99.99,,2013-02-17 05:42:00,
2013-02-16 23:52:00,22.0,20.0,-100.00,SE,145,6.0,6.0,90,0.00,,,-99.99,,2013-02-17 05:52:00,